Regional Weather Roundup
Issued by NWS Bismarck, ND

Home | Current Version | Previous Version | Text Only | Print | Product List | Glossary On
Versions: 1 2 3 4 5 6 7 8 9 10 11 12 13 14 15 16 17 18 19 20 21 22 23 24 25 26 27 28 29 30 31 32 33 34 35 36 37 38 39 40 41 42 43 44 45 46 47 48 49 50
000
ASUS43 KBIS 130210
RWRBIS

NWR BROADCAST TEXT
NATIONAL WEATHER SERVICE BISMARCK ND
900 PM CDT SAT JUL 12 2014

NOTE: "FAIR" INDICATES FEW OR NO CLOUDS BELOW 12,000 FEET WITH NO
SIGNIFICANT WEATHER AND/OR OBSTRUCTIONS TO VISIBILITY.


CITY           SKY/WX    TMP DP  RH WIND       PRES   REMARKS
WILLISTON      CLEAR     77  51  40 N10       30.08R
MINOT          PTCLDY    71  54  54 NW10      30.01R
MINOT AFB      NOT AVBL
BISMARCK       CLEAR     77  54  44 NW10      30.03S
DICKINSON      CLEAR     72  52  49 N8        30.09R
GARRISON         N/A     71  58  63 NW8       30.02R
HETTINGER ARPT CLEAR     73  60  63 NW6       30.11S
JAMESTOWN      CLEAR     72  52  49 W9        29.96S
CARRINGTON     MOCLDY    66  57  72 N13G20    30.00R
CROSBY         FAIR      68  57  68 NW9       30.07R
HARVEY         FAIR      64  57  77 N7        30.00S
HAZEN          FAIR      72  55  56 NW6       30.04S
LINTON         FAIR      73  63  68 N6        30.03S
MANDAN         FAIR      70  59  68 W5        30.05S
RUGBY          FAIR      64  59  82 NW5       29.99R
STANLEY          N/A     68  57  68 N9        30.06R
TIOGA          FAIR      68  55  64 N12       30.10R
WATFORD CITY   FAIR      73  48  40 NW13G21   30.06S
$$

CITY           SKY/WX    TMP DP  RH WIND       PRES   REMARKS
GRAND FORKS    LGT RAIN  61  58  90 NW5       29.93F
GRAND FORKS AF NOT AVBL
DEVILS LAKE    MOCLDY    63  54  72 N5        29.96S
FARGO          PTCLDY    74  57  55 N21G26    29.91R
CANDO          FAIR      63  59  88 W5        29.98R
CAVALIER       FAIR      63  57  82 N5        29.94S
GRAFTON        FAIR      59  59 100 NW7       29.93S
GWINNER        PTCLDY    75  59  57 W8        29.97S
LANGDON        FAIR      61  57  88 CALM      29.96S
ROLLA          FAIR      63  55  77 NW8       29.99R
WALHALLA         N/A     63  63 100 N5          N/A
$$

CITY           SKY/WX    TMP DP  RH WIND       PRES   REMARKS
ABERDEEN       MOCLDY    72  63  73 W6        29.99S
MOBRIDGE       HVY RAIN  71  65  81 W17G25    30.03R VSB 3/4
BUFFALO          N/A     75  53  46 N12       30.09R
RAPID CITY     PTCLDY    72  65  78 W7        30.16S
SIDNEY         CLEAR     77  48  36 NW8       30.12R
WOLF POINT     CLEAR     81  45  28 N14       30.12R
GLENDIVE       CLEAR     79  45  29 N12       30.15R
MILES CITY     CLEAR     81  50  33 N12       30.15R
BAKER          CLEAR     76  50  40 NW10      30.15S
$$

CITY           SKY/WX    TMP DP  RH WIND       PRES   REMARKS
BILLINGS       MOCLDY    84  42  22 SE8       30.20S
GREAT FALLS    SUNNY     83  40  21 NE7       30.19S
$$



USA.gov is the U.S. government's official web portal to all federal, state and local government web resources and services.